Tracking 30995 objects as of 5-Jul-2025
HD Live streaming from Space Station
objects crossing your sky now

HOT BIRD 1

Track HOT BIRD 1 now!
HOT BIRD 1 is classified as:


NORAD ID: 23537
Int'l Code: 1995-016B
Perigee: 36,045.0 km
Apogee: 36,081.8 km
Inclination: 12.7 °
Period: 1,449.9 minutes
Semi major axis: 42434 km
RCS: 7.9621 m2 (large)
Launch date: March 28, 1995
Source: European Telecommunications Satellite Organization (EUTE)
Launch site: FRENCH GUIANA (FRGUI)

Cable programming; direct-to-home broadcasting; 16 channels, Western Europe
Your satellite tracking list
IRIDIUM 33 DEB
Track 1 satellite(s)




NASA's NSSDC Master Catalog

Two Line Element Set (TLE):
1 23537U 95016B   25186.32248133 -.00000024  00000-0  00000-0 0  9996
2 23537  12.6547  25.2241 0004329  91.1938 119.9713  0.99317488110262
Source of the keplerian elements: AFSPC